13.04.2015;17:00;10,663;
13.04.2015;16:00;10,673;
13.04.2015;15:00;10,633;
13.04.2015;14:00;10,663;
13.04.2015;13:00;10,663;
13.04.2015;12:00;10,623;
13.04.2015;11:00;10,633;
13.04.2015;10:00;10,633;
13.04.2015;09:00;10,653;
13.04.2015;08:00;10,623;
13.04.2015;07:00;10,623;
13.04.2015;06:00;10,603;
13.04.2015;05:00;10,613;
13.04.2015;04:00;10,593;
13.04.2015;03:00;10,583;
13.04.2015;02:00;10,573;
13.04.2015;01:00;10,613;
13.04.2015;00:00;10,593;
12.04.2015;23:00;10,633;
12.04.2015;22:00;10,473;
12.04.2015;21:00;10,523;
12.04.2015;20:00;10,593;
12.04.2015;19:00;10,623;
12.04.2015;18:00;10,743;
12.04.2015;17:00;10,733;
12.04.2015;16:00;10,723;
12.04.2015;15:00;10,823;
12.04.2015;14:00;10,953;
12.04.2015;13:00;10,813;
12.04.2015;12:00;10,823;
12.04.2015;11:00;10,743;
12.04.2015;10:00;10,703;
12.04.2015;09:00;10,673;
12.04.2015;08:00;10,623;
12.04.2015;07:00;10,593;
12.04.2015;06:00;10,593;
12.04.2015;05:00;10,613;
12.04.2015;04:00;10,603;
12.04.2015;03:00;10,623;
12.04.2015;02:00;10,623;
12.04.2015;01:00;10,643;
12.04.2015;00:00;10,593;
11.04.2015;23:00;10,563;
11.04.2015;22:00;10,573;
11.04.2015;21:00;10,533;
11.04.2015;20:00;10,493;
11.04.2015;19:00;10,523;
11.04.2015;18:00;10,613;
11.04.2015;17:00;10,573;
11.04.2015;16:00;10,613;
11.04.2015;15:00;10,633;
11.04.2015;14:00;10,623;
11.04.2015;13:00;10,683;
11.04.2015;12:00;10,713;
11.04.2015;11:00;10,623;
11.04.2015;10:00;10,613;
11.04.2015;09:00;10,613;
11.04.2015;08:00;10,613;
11.04.2015;07:00;10,613;
11.04.2015;06:00;10,593;
11.04.2015;05:00;10,593;
11.04.2015;04:00;10,613;
11.04.2015;03:00;10,623;
11.04.2015;02:00;10,603;
11.04.2015;01:00;10,633;
11.04.2015;00:00;10,643;
10.04.2015;23:00;10,633;
10.04.2015;22:00;10,613;
10.04.2015;21:00;10,603;
10.04.2015;20:00;10,623;
10.04.2015;19:00;10,623;
10.04.2015;18:00;10,633;
10.04.2015;17:00;10,663;
10.04.2015;16:00;10,693;
10.04.2015;15:00;10,703;
10.04.2015;14:00;10,713;
10.04.2015;13:00;10,753;
10.04.2015;12:00;10,773;
10.04.2015;11:00;10,763;
10.04.2015;10:00;10,733;
10.04.2015;09:00;10,733;
10.04.2015;08:00;10,713;
10.04.2015;07:00;10,713;
10.04.2015;06:00;10,643;
10.04.2015;05:00;10,683;
10.04.2015;04:00;10,683;
10.04.2015;03:00;10,683;
10.04.2015;02:00;10,683;
10.04.2015;01:00;10,693;
10.04.2015;00:00;10,703;
09.04.2015;23:00;10,703;
09.04.2015;22:00;10,663;
09.04.2015;21:00;10,713;
09.04.2015;20:00;10,723;
09.04.2015;19:00;10,713;
09.04.2015;18:00;10,703;
09.04.2015;17:00;10,743;
09.04.2015;16:00;10,783;
09.04.2015;15:00;10,793;
09.04.2015;14:00;10,823;
09.04.2015;13:00;10,833;
09.04.2015;12:00;10,773;
09.04.2015;11:00;10,733;
09.04.2015;10:00;10,753;
09.04.2015;09:00;10,773;
09.04.2015;08:00;10,753;
09.04.2015;07:00;10,763;
09.04.2015;06:00;10,763;
09.04.2015;05:00;10,703;
09.04.2015;04:00;10,733;
09.04.2015;03:00;10,773;
09.04.2015;02:00;10,763;
09.04.2015;01:00;10,773;
09.04.2015;00:00;10,833;
08.04.2015;23:00;10,803;
08.04.2015;22:00;10,803;
08.04.2015;21:00;10,823;
08.04.2015;20:00;10,823;
08.04.2015;19:00;10,833;
08.04.2015;18:00;10,843;
08.04.2015;17:00;10,843;
08.04.2015;16:00;10,833;
08.04.2015;15:00;10,823;
08.04.2015;14:00;10,813;
08.04.2015;13:00;10,833;
08.04.2015;12:00;10,813;
08.04.2015;11:00;10,773;
08.04.2015;10:00;10,763;
08.04.2015;09:00;10,743;
08.04.2015;08:00;10,773;
08.04.2015;07:00;10,733;
08.04.2015;06:00;10,713;
08.04.2015;05:00;10,683;
08.04.2015;04:00;10,673;
08.04.2015;03:00;10,683;
08.04.2015;02:00;10,683;
08.04.2015;01:00;10,663;
08.04.2015;00:00;10,663;
07.04.2015;23:00;10,653;
07.04.2015;22:00;10,653;
07.04.2015;21:00;10,703;
07.04.2015;20:00;10,663;
07.04.2015;19:00;10,673;
07.04.2015;18:00;10,703;
07.04.2015;17:00;10,743;
07.04.2015;16:00;10,683;
07.04.2015;15:00;10,733;
07.04.2015;14:00;10,713;
07.04.2015;13:00;10,743;
07.04.2015;12:00;10,753;
07.04.2015;11:00;10,743;
07.04.2015;10:00;10,703;
07.04.2015;09:00;10,693;
07.04.2015;08:00;10,683;
07.04.2015;07:00;10,683;
07.04.2015;06:00;10,713;
07.04.2015;05:00;10,693;
07.04.2015;04:00;10,693;
07.04.2015;03:00;10,693;
07.04.2015;02:00;10,683;
07.04.2015;01:00;10,673;
07.04.2015;00:00;10,673;
06.04.2015;23:00;10,693;
06.04.2015;22:00;10,713;
06.04.2015;21:00;10,683;
06.04.2015;20:00;10,673;
06.04.2015;19:00;10,723;
06.04.2015;18:00;10,673;
06.04.2015;17:00;10,683;
06.04.2015;16:00;10,733;
06.04.2015;15:00;10,763;
06.04.2015;14:00;10,793;
06.04.2015;13:00;10,783;
06.04.2015;12:00;10,763;
06.04.2015;11:00;10,763;
06.04.2015;10:00;10,713;
06.04.2015;09:00;10,643;
06.04.2015;08:00;10,653;
06.04.2015;07:00;10,653;
06.04.2015;06:00;10,633;
06.04.2015;05:00;10,643;
06.04.2015;04:00;10,633;
06.04.2015;03:00;10,653;
06.04.2015;02:00;10,573;
06.04.2015;01:00;10,573;
06.04.2015;00:00;10,503;
05.04.2015;23:00;10,523;
05.04.2015;22:00;10,453;
05.04.2015;21:00;10,493;
05.04.2015;20:00;10,613;
05.04.2015;19:00;10,663;
05.04.2015;18:00;10,703;
05.04.2015;17:00;10,753;
05.04.2015;16:00;10,793;
05.04.2015;15:00;10,793;
05.04.2015;14:00;10,743;
05.04.2015;13:00;10,793;
05.04.2015;12:00;10,723;
05.04.2015;11:00;10,753;
05.04.2015;10:00;10,733;
05.04.2015;09:00;10,713;
05.04.2015;08:00;10,713;
05.04.2015;07:00;10,703;
05.04.2015;06:00;10,713;
05.04.2015;05:00;10,713;
05.04.2015;04:00;10,733;
05.04.2015;03:00;10,713;
05.04.2015;02:00;10,723;
05.04.2015;01:00;10,713;
05.04.2015;00:00;10,723;
04.04.2015;23:00;10,733;
04.04.2015;22:00;10,733;
04.04.2015;21:00;10,723;
04.04.2015;20:00;10,723;
04.04.2015;19:00;10,733;
04.04.2015;18:00;10,763;
04.04.2015;17:00;10,753;
04.04.2015;16:00;10,793;
04.04.2015;15:00;10,813;
04.04.2015;14:00;10,763;
04.04.2015;13:00;10,723;
04.04.2015;12:00;10,763;
04.04.2015;11:00;10,773;
04.04.2015;10:00;10,713;
04.04.2015;09:00;10,713;
04.04.2015;08:00;10,703;
04.04.2015;07:00;10,683;
04.04.2015;06:00;10,653;
04.04.2015;05:00;10,683;
04.04.2015;04:00;10,703;
04.04.2015;03:00;10,673;
04.04.2015;02:00;10,633;
04.04.2015;01:00;10,653;
04.04.2015;00:00;10,643;
03.04.2015;23:00;10,593;
03.04.2015;22:00;10,593;
03.04.2015;21:00;10,563;
03.04.2015;20:00;10,563;
03.04.2015;19:00;10,663;
03.04.2015;18:00;10,653;
03.04.2015;17:00;10,663;
03.04.2015;16:00;10,653;
03.04.2015;15:00;10,683;
03.04.2015;14:00;10,693;
03.04.2015;13:00;10,703;
03.04.2015;12:00;10,703;
03.04.2015;11:00;10,703;
03.04.2015;10:00;10,683;
03.04.2015;09:00;10,693;
03.04.2015;08:00;10,693;
03.04.2015;07:00;10,683;
03.04.2015;06:00;10,703;
03.04.2015;05:00;10,713;
03.04.2015;04:00;10,703;
03.04.2015;03:00;10,753;
03.04.2015;02:00;10,733;
03.04.2015;01:00;10,743;
03.04.2015;00:00;10,763;
02.04.2015;23:00;10,783;
02.04.2015;22:00;10,753;
02.04.2015;21:00;10,763;
02.04.2015;20:00;10,763;
02.04.2015;19:00;10,763;
02.04.2015;18:00;10,783;
02.04.2015;17:00;10,783;
02.04.2015;16:00;10,813;
02.04.2015;15:00;10,813;
02.04.2015;14:00;10,803;
02.04.2015;13:00;10,813;
02.04.2015;12:00;10,833;
02.04.2015;11:00;10,823;
02.04.2015;10:00;10,813;
02.04.2015;09:00;10,813;
02.04.2015;08:00;10,803;
02.04.2015;07:00;10,803;
02.04.2015;06:00;10,783;
02.04.2015;05:00;10,773;
02.04.2015;04:00;10,703;
02.04.2015;03:00;10,733;
02.04.2015;02:00;10,763;
02.04.2015;01:00;10,763;
02.04.2015;00:00;10,773;
01.04.2015;23:00;10,743;
01.04.2015;22:00;10,753;
01.04.2015;21:00;10,723;
01.04.2015;20:00;10,713;
01.04.2015;19:00;10,763;
01.04.2015;18:00;10,733;
01.04.2015;17:00;10,703;
01.04.2015;16:00;10,763;
01.04.2015;15:00;10,713;
01.04.2015;14:00;10,683;
01.04.2015;13:00;10,613;
01.04.2015;12:00;10,683;
01.04.2015;11:00;10,623;
01.04.2015;10:00;10,513;
01.04.2015;09:00;10,523;
01.04.2015;08:00;10,523;
01.04.2015;07:00;10,523;
01.04.2015;06:00;10,533;
01.04.2015;05:00;10,523;
01.04.2015;04:00;10,543;
01.04.2015;03:00;10,563;
01.04.2015;02:00;10,553;
01.04.2015;01:00;10,583;
01.04.2015;00:00;10,623;
31.03.2015;23:00;10,603;
31.03.2015;22:00;10,663;
31.03.2015;21:00;10,733;
31.03.2015;20:00;10,783;
31.03.2015;19:00;10,793;
31.03.2015;18:00;10,803;
31.03.2015;17:00;10,793;
31.03.2015;16:00;10,823;
31.03.2015;15:00;10,823;
31.03.2015;14:00;10,833;
31.03.2015;13:00;10,843;
31.03.2015;12:00;10,843;
31.03.2015;11:00;10,823;
31.03.2015;10:00;10,813;
31.03.2015;09:00;10,823;
31.03.2015;08:00;10,803;
31.03.2015;07:00;10,803;
31.03.2015;06:00;10,823;
31.03.2015;05:00;10,813;
31.03.2015;04:00;10,823;
31.03.2015;03:00;10,823;
31.03.2015;02:00;10,813;
31.03.2015;01:00;10,803;
31.03.2015;00:00;10,793;
30.03.2015;23:00;10,793;
30.03.2015;22:00;10,803;
30.03.2015;21:00;10,813;
30.03.2015;20:00;10,783;
30.03.2015;19:00;10,803;
30.03.2015;18:00;10,793;
30.03.2015;17:00;10,803;
30.03.2015;16:00;10,823;
30.03.2015;15:00;10,813;
30.03.2015;14:00;10,803;
30.03.2015;13:00;10,813;
30.03.2015;12:00;10,813;
30.03.2015;11:00;10,803;
30.03.2015;10:00;10,813;
30.03.2015;09:00;10,803;
30.03.2015;08:00;10,803;
30.03.2015;07:00;10,803;
30.03.2015;06:00;10,793;
30.03.2015;05:00;10,803;
30.03.2015;04:00;10,813;
30.03.2015;03:00;10,803;
30.03.2015;02:00;10,803;
30.03.2015;01:00;10,813;
30.03.2015;00:00;10,803;
29.03.2015;23:00;10,803;
29.03.2015;22:00;10,813;
29.03.2015;21:00;10,803;
29.03.2015;20:00;10,793;
29.03.2015;19:00;10,783;
29.03.2015;18:00;10,783;
29.03.2015;17:00;10,783;
29.03.2015;16:00;10,803;
29.03.2015;15:00;10,793;
29.03.2015;14:00;10,803;
29.03.2015;13:00;10,783;
29.03.2015;12:00;10,783;
29.03.2015;11:00;10,733;
29.03.2015;10:00;10,753;
29.03.2015;09:00;10,723;
29.03.2015;08:00;10,713;
29.03.2015;07:00;10,733;
29.03.2015;06:00;10,743;
29.03.2015;05:00;10,733;
29.03.2015;04:00;10,733;
29.03.2015;02:00;10,713;
29.03.2015;01:00;10,673;
29.03.2015;00:00;10,683;
28.03.2015;23:00;10,683;
28.03.2015;22:00;10,663;
28.03.2015;21:00;10,673;
28.03.2015;20:00;10,683;
28.03.2015;19:00;10,693;
28.03.2015;18:00;10,593;
28.03.2015;17:00;10,543;
28.03.2015;16:00;10,533;
28.03.2015;15:00;10,483;
28.03.2015;14:00;10,523;
28.03.2015;13:00;10,583;
28.03.2015;12:00;10,573;
28.03.2015;11:00;10,523;
28.03.2015;10:00;10,513;
28.03.2015;09:00;10,543;
28.03.2015;08:00;10,503;
28.03.2015;07:00;10,553;
28.03.2015;06:00;10,553;
28.03.2015;05:00;10,623;
28.03.2015;04:00;10,603;
28.03.2015;03:00;10,593;
28.03.2015;02:00;10,603;
28.03.2015;01:00;10,553;
28.03.2015;00:00;10,483;
27.03.2015;23:00;10,423;
27.03.2015;22:00;10,403;
27.03.2015;21:00;10,453;
27.03.2015;20:00;10,483;
27.03.2015;19:00;10,483;
27.03.2015;18:00;10,513;
27.03.2015;17:00;10,533;
27.03.2015;16:00;10,553;
27.03.2015;15:00;10,583;
27.03.2015;14:00;10,603;
27.03.2015;13:00;10,603;
27.03.2015;12:00;10,623;
27.03.2015;11:00;10,623;
27.03.2015;10:00;10,633;
27.03.2015;09:00;10,603;
27.03.2015;08:00;10,613;
27.03.2015;07:00;10,593;
27.03.2015;06:00;10,593;
27.03.2015;05:00;10,593;
27.03.2015;04:00;10,593;
27.03.2015;03:00;10,583;
27.03.2015;02:00;10,563;
27.03.2015;01:00;10,553;
27.03.2015;00:00;10,553;
26.03.2015;23:00;10,553;
26.03.2015;22:00;10,563;
26.03.2015;21:00;10,593;
26.03.2015;20:00;10,633;
26.03.2015;19:00;10,623;
26.03.2015;18:00;10,613;
26.03.2015;17:00;10,613;
26.03.2015;16:00;10,623;
26.03.2015;15:00;10,633;
26.03.2015;14:00;10,653;
26.03.2015;13:00;10,643;
26.03.2015;12:00;10,633;
26.03.2015;11:00;10,593;
26.03.2015;10:00;10,523;
26.03.2015;09:00;10,503;
26.03.2015;08:00;10,453;
26.03.2015;07:00;10,463;
26.03.2015;06:00;10,463;
26.03.2015;05:00;10,493;
26.03.2015;04:00;10,473;
26.03.2015;03:00;10,493;
26.03.2015;02:00;10,453;
26.03.2015;01:00;10,483;
26.03.2015;00:00;10,543;
25.03.2015;23:00;10,563;
25.03.2015;22:00;10,523;
25.03.2015;21:00;10,603;
25.03.2015;20:00;10,553;
25.03.2015;19:00;10,583;
25.03.2015;18:00;10,593;
25.03.2015;17:00;10,643;
25.03.2015;16:00;10,643;
25.03.2015;15:00;10,603;
25.03.2015;14:00;10,643;
25.03.2015;13:00;10,653;
25.03.2015;12:00;10,643;
25.03.2015;11:00;10,633;
25.03.2015;10:00;10,623;
25.03.2015;09:00;10,613;
25.03.2015;08:00;10,593;
25.03.2015;07:00;10,613;
25.03.2015;06:00;10,613;
25.03.2015;05:00;10,623;
25.03.2015;04:00;10,633;
25.03.2015;03:00;10,673;
25.03.2015;02:00;10,673;
25.03.2015;01:00;10,693;
25.03.2015;00:00;10,693;
24.03.2015;23:00;10,663;
24.03.2015;22:00;10,603;
24.03.2015;21:00;10,603;
24.03.2015;20:00;10,693;
24.03.2015;19:00;10,703;
24.03.2015;18:00;10,763;
24.03.2015;17:00;10,773;
24.03.2015;16:00;10,763;
24.03.2015;15:00;10,793;
24.03.2015;14:00;10,783;
24.03.2015;13:00;10,793;
24.03.2015;12:00;10,783;
24.03.2015;11:00;10,733;
24.03.2015;10:00;10,723;
24.03.2015;09:00;10,623;
24.03.2015;08:00;10,603;
24.03.2015;07:00;10,603;
24.03.2015;06:00;10,593;
24.03.2015;05:00;10,593;
24.03.2015;04:00;10,593;
24.03.2015;03:00;10,603;
24.03.2015;02:00;10,593;
24.03.2015;01:00;10,583;
24.03.2015;00:00;10,593;
23.03.2015;23:00;10,583;
23.03.2015;22:00;10,583;
23.03.2015;21:00;10,563;
23.03.2015;20:00;10,543;
23.03.2015;19:00;10,563;
23.03.2015;18:00;10,593;
23.03.2015;17:00;10,653;
23.03.2015;16:00;10,653;
23.03.2015;15:00;10,673;
23.03.2015;14:00;10,643;
23.03.2015;13:00;10,653;
23.03.2015;12:00;10,653;
23.03.2015;11:00;10,663;
23.03.2015;10:00;10,673;
23.03.2015;09:00;10,663;
23.03.2015;08:00;10,693;
23.03.2015;07:00;10,683;
23.03.2015;06:00;10,633;
23.03.2015;05:00;10,643;
23.03.2015;04:00;10,693;
23.03.2015;03:00;10,633;
23.03.2015;02:00;10,593;
23.03.2015;01:00;10,683;
23.03.2015;00:00;10,693;
22.03.2015;23:00;10,683;
22.03.2015;22:00;10,633;
22.03.2015;21:00;10,683;
22.03.2015;20:00;10,673;
22.03.2015;19:00;10,673;
22.03.2015;18:00;10,703;
22.03.2015;17:00;10,703;
22.03.2015;16:00;10,723;
22.03.2015;15:00;10,753;
22.03.2015;14:00;10,713;
22.03.2015;13:00;10,723;
22.03.2015;12:00;10,703;
22.03.2015;11:00;10,713;
22.03.2015;10:00;10,663;
22.03.2015;09:00;10,703;
22.03.2015;08:00;10,683;
22.03.2015;07:00;10,613;
22.03.2015;06:00;10,643;
22.03.2015;05:00;10,663;
22.03.2015;04:00;10,663;
22.03.2015;03:00;10,633;
22.03.2015;02:00;10,623;
22.03.2015;01:00;10,633;
22.03.2015;00:00;10,603;
21.03.2015;23:00;10,603;
21.03.2015;22:00;10,603;
21.03.2015;21:00;10,523;
21.03.2015;20:00;10,613;
21.03.2015;19:00;10,633;
21.03.2015;18:00;10,643;
21.03.2015;17:00;10,733;
21.03.2015;16:00;10,793;
21.03.2015;15:00;10,803;
21.03.2015;14:00;10,863;
21.03.2015;13:00;10,853;
21.03.2015;12:00;10,853;
21.03.2015;11:00;10,843;
21.03.2015;10:00;10,823;
21.03.2015;09:00;10,793;
21.03.2015;08:00;10,763;
21.03.2015;07:00;10,753;
21.03.2015;06:00;10,743;
21.03.2015;05:00;10,763;
21.03.2015;04:00;10,763;
21.03.2015;03:00;10,763;
21.03.2015;02:00;10,743;
21.03.2015;01:00;10,763;
21.03.2015;00:00;10,743;
20.03.2015;23:00;10,763;
20.03.2015;22:00;10,753;
20.03.2015;21:00;10,783;
20.03.2015;20:00;10,783;
20.03.2015;19:00;10,783;
20.03.2015;18:00;10,793;
20.03.2015;17:00;10,833;
20.03.2015;16:00;10,863;
20.03.2015;15:00;10,863;
20.03.2015;14:00;10,903;
20.03.2015;13:00;10,873;
20.03.2015;12:00;10,833;
20.03.2015;11:00;10,873;
20.03.2015;10:00;10,883;
20.03.2015;09:00;10,863;
20.03.2015;08:00;10,803;
20.03.2015;07:00;10,803;
20.03.2015;06:00;10,793;
20.03.2015;05:00;10,803;
20.03.2015;04:00;10,783;
20.03.2015;03:00;10,803;
20.03.2015;02:00;10,813;
20.03.2015;01:00;10,803;
20.03.2015;00:00;10,833;
19.03.2015;23:00;10,833;
19.03.2015;22:00;10,823;
19.03.2015;21:00;10,813;
19.03.2015;20:00;10,813;
19.03.2015;19:00;10,803;
19.03.2015;18:00;10,833;
19.03.2015;17:00;10,843;
19.03.2015;16:00;10,873;
19.03.2015;15:00;10,873;
19.03.2015;14:00;10,893;
19.03.2015;13:00;10,883;
19.03.2015;12:00;10,893;
19.03.2015;11:00;10,833;
19.03.2015;10:00;10,873;
19.03.2015;09:00;10,813;
19.03.2015;08:00;10,793;
19.03.2015;07:00;10,793;
19.03.2015;06:00;10,813;
19.03.2015;05:00;10,813;
19.03.2015;04:00;10,813;
19.03.2015;03:00;10,813;
19.03.2015;02:00;10,813;
19.03.2015;01:00;10,813;
19.03.2015;00:00;10,783;
18.03.2015;23:00;10,773;
18.03.2015;22:00;10,773;
18.03.2015;21:00;10,783;
18.03.2015;20:00;10,753;
18.03.2015;19:00;10,733;
18.03.2015;18:00;10,773;
18.03.2015;17:00;10,823;
18.03.2015;16:00;10,843;
18.03.2015;15:00;10,883;
18.03.2015;14:00;10,923;
18.03.2015;13:00;10,933;
18.03.2015;12:00;10,923;
18.03.2015;11:00;10,873;
18.03.2015;10:00;10,793;
18.03.2015;09:00;10,773;
18.03.2015;08:00;10,743;
18.03.2015;07:00;10,703;
18.03.2015;06:00;10,713;
18.03.2015;05:00;10,813;
18.03.2015;04:00;10,833;
18.03.2015;03:00;10,873;
18.03.2015;02:00;10,873;
18.03.2015;01:00;10,893;
18.03.2015;00:00;10,923;
17.03.2015;23:00;10,883;
17.03.2015;22:00;10,863;
17.03.2015;21:00;10,883;
17.03.2015;20:00;10,903;
17.03.2015;19:00;10,873;
17.03.2015;18:00;10,863;
17.03.2015;17:00;10,873;
17.03.2015;16:00;10,903;
17.03.2015;15:00;10,923;
17.03.2015;14:00;10,923;
17.03.2015;13:00;10,953;
17.03.2015;12:00;10,963;
17.03.2015;11:00;10,943;
17.03.2015;10:00;11,003;
17.03.2015;09:00;10,983;
17.03.2015;08:00;10,873;
17.03.2015;07:00;10,863;
17.03.2015;06:00;10,873;
17.03.2015;05:00;10,883;
17.03.2015;04:00;10,853;
17.03.2015;03:00;10,853;
17.03.2015;02:00;10,853;
17.03.2015;01:00;10,893;
17.03.2015;00:00;10,923;
16.03.2015;23:00;10,873;
16.03.2015;22:00;10,833;
16.03.2015;21:00;10,853;
16.03.2015;20:00;10,873;
16.03.2015;19:00;10,863;
16.03.2015;18:00;10,823;
16.03.2015;17:00;10,873;
16.03.2015;16:00;10,913;
16.03.2015;15:00;10,963;
16.03.2015;14:00;11,033;
16.03.2015;13:00;11,033;
16.03.2015;12:00;11,013;
16.03.2015;11:00;11,033;
16.03.2015;10:00;11,023;
16.03.2015;09:00;10,993;
16.03.2015;08:00;10,983;
16.03.2015;07:00;10,973;
16.03.2015;06:00;10,893;
16.03.2015;05:00;10,903;
16.03.2015;04:00;10,853;
16.03.2015;03:00;10,863;
16.03.2015;02:00;10,893;
16.03.2015;01:00;10,953;
16.03.2015;00:00;10,923;
15.03.2015;23:00;10,993;
15.03.2015;22:00;10,983;
15.03.2015;21:00;10,963;
15.03.2015;20:00;10,963;
15.03.2015;19:00;10,883;
15.03.2015;18:00;10,903;
15.03.2015;17:00;10,883;
15.03.2015;16:00;10,913;
15.03.2015;15:00;10,913;
15.03.2015;14:00;11,013;
15.03.2015;13:00;10,953;
15.03.2015;12:00;11,013;
15.03.2015;11:00;10,933;
15.03.2015;10:00;11,033;
15.03.2015;09:00;10,963;
15.03.2015;08:00;10,923;
15.03.2015;07:00;10,853;
15.03.2015;06:00;10,813;
15.03.2015;05:00;10,843;
15.03.2015;04:00;10,893;
15.03.2015;03:00;10,943;
15.03.2015;02:00;10,963;
15.03.2015;01:00;10,963;
15.03.2015;00:00;10,953;
14.03.2015;23:00;10,953;
14.03.2015;22:00;10,913;
14.03.2015;21:00;10,893;
14.03.2015;20:00;10,893;
14.03.2015;19:00;10,843;
14.03.2015;18:00;10,823;
14.03.2015;17:00;10,893;
14.03.2015;16:00;10,873;
14.03.2015;15:00;10,883;
14.03.2015;14:00;10,933;
14.03.2015;13:00;10,963;
14.03.2015;12:00;10,983;
14.03.2015;11:00;10,963;
14.03.2015;10:00;10,953;
14.03.2015;09:00;10,953;
14.03.2015;08:00;10,903;
14.03.2015;07:00;10,903;
14.03.2015;06:00;10,903;
14.03.2015;05:00;10,903;
14.03.2015;04:00;10,863;
14.03.2015;03:00;10,763;
14.03.2015;02:00;10,833;
14.03.2015;01:00;10,843;
14.03.2015;00:00;10,813;
13.03.2015;23:00;10,963;
13.03.2015;22:00;10,873;
13.03.2015;21:00;10,893;
13.03.2015;20:00;10,733;
13.03.2015;19:00;10,843;
13.03.2015;18:00;10,863;
13.03.2015;17:00;10,873;
13.03.2015;16:00;10,883;
13.03.2015;15:00;10,913;
13.03.2015;14:00;10,913;
13.03.2015;13:00;10,983;
13.03.2015;12:00;10,993;
13.03.2015;11:00;11,003;
13.03.2015;10:00;11,063;
13.03.2015;09:00;11,073;
13.03.2015;08:00;11,063;
13.03.2015;07:00;11,003;
13.03.2015;06:00;11,023;
13.03.2015;05:00;11,013;
13.03.2015;04:00;11,003;
13.03.2015;03:00;11,003;
13.03.2015;02:00;10,993;
13.03.2015;01:00;11,003;
13.03.2015;00:00;11,023;
12.03.2015;23:00;10,983;
12.03.2015;22:00;10,993;
12.03.2015;21:00;10,983;
12.03.2015;20:00;10,993;
12.03.2015;19:00;10,923;
12.03.2015;18:00;10,953;
12.03.2015;17:00;11,003;
12.03.2015;16:00;11,003;
12.03.2015;15:00;11,023;
12.03.2015;14:00;11,113;
12.03.2015;13:00;11,003;
12.03.2015;12:00;11,053;
12.03.2015;11:00;11,073;
12.03.2015;10:00;11,063;
12.03.2015;09:00;11,083;
12.03.2015;08:00;11,073;
12.03.2015;07:00;11,073;
12.03.2015;06:00;11,033;
12.03.2015;05:00;11,083;
12.03.2015;04:00;11,073;
12.03.2015;03:00;11,023;
12.03.2015;02:00;11,033;
12.03.2015;01:00;10,923;
12.03.2015;00:00;10,913;
11.03.2015;23:00;11,013;
11.03.2015;22:00;10,953;
11.03.2015;21:00;10,893;
11.03.2015;20:00;10,883;
11.03.2015;19:00;11,033;
11.03.2015;18:00;11,093;
11.03.2015;17:00;11,043;
11.03.2015;16:00;11,083;
11.03.2015;15:00;11,163;
11.03.2015;14:00;11,163;
11.03.2015;13:00;11,073;
11.03.2015;12:00;10,813;
11.03.2015;11:00;10,773;
11.03.2015;10:00;10,753;
11.03.2015;09:00;10,743;
11.03.2015;08:00;10,723;
11.03.2015;07:00;10,753;
11.03.2015;06:00;10,703;
11.03.2015;05:00;10,603;
11.03.2015;04:00;10,573;
11.03.2015;03:00;10,603;
11.03.2015;02:00;10,573;
11.03.2015;01:00;10,643;
11.03.2015;00:00;10,613;
10.03.2015;23:00;10,663;
10.03.2015;22:00;10,653;
10.03.2015;21:00;10,643;
10.03.2015;20:00;10,743;
10.03.2015;19:00;10,723;
10.03.2015;18:00;10,733;
10.03.2015;17:00;10,743;
10.03.2015;16:00;10,733;
10.03.2015;15:00;10,753;
10.03.2015;14:00;10,753;
10.03.2015;13:00;10,773;
10.03.2015;12:00;10,773;
10.03.2015;11:00;10,733;
10.03.2015;10:00;10,703;
10.03.2015;09:00;10,603;
10.03.2015;08:00;10,583;
10.03.2015;07:00;10,553;
10.03.2015;06:00;10,603;
10.03.2015;05:00;10,593;
10.03.2015;04:00;10,573;
10.03.2015;03:00;10,633;
10.03.2015;02:00;10,613;
10.03.2015;01:00;10,593;
10.03.2015;00:00;10,613;
09.03.2015;23:00;10,643;
09.03.2015;22:00;10,693;
09.03.2015;21:00;10,663;
09.03.2015;20:00;10,623;
09.03.2015;19:00;10,713;
09.03.2015;18:00;10,703;
09.03.2015;17:00;10,723;
09.03.2015;16:00;10,733;
09.03.2015;15:00;10,743;
09.03.2015;14:00;10,713;
09.03.2015;13:00;10,693;
09.03.2015;12:00;10,693;
09.03.2015;11:00;10,673;
09.03.2015;10:00;10,663;
09.03.2015;09:00;10,633;
09.03.2015;08:00;10,603;
09.03.2015;07:00;10,583;
09.03.2015;06:00;10,563;
09.03.2015;05:00;10,613;
09.03.2015;04:00;10,613;
09.03.2015;03:00;10,663;
09.03.2015;02:00;10,603;
09.03.2015;01:00;10,643;
09.03.2015;00:00;10,643;
08.03.2015;23:00;10,623;
08.03.2015;22:00;10,633;
08.03.2015;21:00;10,623;
08.03.2015;20:00;10,633;
08.03.2015;19:00;10,593;
08.03.2015;18:00;10,633;
08.03.2015;17:00;10,643;
08.03.2015;16:00;10,633;
08.03.2015;15:00;10,623;
08.03.2015;14:00;10,603;
08.03.2015;13:00;10,583;
08.03.2015;12:00;10,553;
08.03.2015;11:00;10,573;
08.03.2015;10:00;10,583;
08.03.2015;09:00;10,633;
08.03.2015;08:00;10,603;
08.03.2015;07:00;10,703;
08.03.2015;06:00;10,743;
08.03.2015;05:00;10,743;
08.03.2015;04:00;10,713;
08.03.2015;03:00;10,713;
08.03.2015;02:00;10,703;
08.03.2015;01:00;10,683;
08.03.2015;00:00;10,733;
07.03.2015;23:00;10,753;
07.03.2015;22:00;10,773;
07.03.2015;21:00;10,733;
07.03.2015;20:00;10,773;
07.03.2015;19:00;10,793;
07.03.2015;18:00;10,793;
07.03.2015;17:00;10,813;
07.03.2015;16:00;10,863;
07.03.2015;15:00;10,863;
07.03.2015;14:00;10,873;
07.03.2015;13:00;10,893;
07.03.2015;12:00;10,873;
07.03.2015;11:00;10,843;
07.03.2015;10:00;10,883;
07.03.2015;09:00;10,843;
07.03.2015;08:00;10,833;
07.03.2015;07:00;10,843;
07.03.2015;06:00;10,813;
07.03.2015;05:00;10,843;
07.03.2015;04:00;10,743;
07.03.2015;03:00;10,763;
07.03.2015;02:00;10,753;
07.03.2015;01:00;10,773;
07.03.2015;00:00;10,753;
06.03.2015;23:00;10,743;
06.03.2015;22:00;10,743;
06.03.2015;21:00;10,733;
06.03.2015;20:00;10,693;
06.03.2015;19:00;10,673;
06.03.2015;18:00;10,663;
06.03.2015;17:00;10,633;
06.03.2015;16:00;10,663;
06.03.2015;15:00;10,683;
06.03.2015;14:00;10,693;
06.03.2015;13:00;10,693;
06.03.2015;12:00;10,673;
06.03.2015;11:00;10,673;
06.03.2015;10:00;10,693;
06.03.2015;09:00;10,673;
06.03.2015;08:00;10,643;
06.03.2015;07:00;10,653;
06.03.2015;06:00;10,663;